Location: Bemmer
(51.5498°N, 5.6249°E)
Time: 12:47:27
(UTC+00:00)

Cosmos 968 Rocket - Pass Details

Date: 03 March 2021
Orbit: 740 x 771 km, 74.0° (Epoch: 16 April)

Event Time Altitude Azimuth Distance (km) Brightness Sun altitude
Rises 17:46:48 0° 335° (NNW) 3,249 7.0 -4.7°
Reaches altitude 10° 17:49:11 10° 336° (NNW) 2,322 6.3 -5.1°
Maximum altitude 17:54:29 85° 66° (ENE) 781 3.5 -5.9°
Drops below altitude 10° 17:59:46 10° 155° (SSE) 2,312 5.8 -6.7°
Sets 18:02:08 0° 156° (SSE) 3,234 6.5 -7.1°
